This is the latest recevied weather packets stored in our database for station/object KD0RII. If no packets are shown the sender has not sent any weather packets the latest 10 day(s).
| Time | Temp. | Humidity | Pressure | Rain* | Wind** | Luminosity | Snow |
|---|---|---|---|---|---|---|---|
| 1777301804 | 21.11° C | 77% | 1002.7 hPa | 0 mm | - | 392 W/m² | - |
| 1777301501 | 21.11° C | 75% | 1002.4 hPa | 0 mm | - | 373 W/m² | - |
| 1777301198 | 21.11° C | 77% | 1002.6 hPa | 0 mm | - | 354 W/m² | - |
| 1777300894 | 20.56° C | 80% | 1002.6 hPa | 0 mm | - | 343 W/m² | - |
| 1777300593 | 20° C | 82% | 1002.5 hPa | 0 mm | - | 328 W/m² | - |
| 1777300290 | 18.89° C | 85% | 1002.8 hPa | 0 mm | - | 202 W/m² | - |
| 1777299987 | 18.33° C | 86% | 1002.8 hPa | 0 mm | - | 266 W/m² | - |
| 1777299683 | 18.33° C | 87% | 1002.8 hPa | 0 mm | - | 188 W/m² | - |
| 1777299381 | 17.78° C | 88% | 1002.8 hPa | 0 mm | - | 182 W/m² | - |
| 1777299079 | 17.78° C | 91% | 1003 hPa | 0 mm | - | 256 W/m² | - |
| 1777298775 | 17.22° C | 92% | 1003.1 hPa | 0 mm | - | 199 W/m² | - |
| 1777298472 | 16.67° C | 93% | 1003 hPa | 0 mm | - | 158 W/m² | - |
| 1777298168 | 16.67° C | 93% | 1002.8 hPa | 0 mm | - | 142 W/m² | - |
| 1777297863 | 16.67° C | 94% | 1002.9 hPa | 0 mm | - | 155 W/m² | - |
| 1777297561 | 16.11° C | 94% | 1003 hPa | 0 mm | - | 130 W/m² | - |
| 1777297258 | 16.11° C | 94% | 1002.8 hPa | 0 mm | - | 114 W/m² | - |
| 1777296955 | 16.11° C | 94% | 1002.8 hPa | 0 mm | - | 98 W/m² | - |
| 1777296652 | 16.11° C | 94% | 1003.1 hPa | 0 mm | - | 103 W/m² | - |
| 1777296327 | 15.56° C | 94% | 1002.9 hPa | 0 mm | - | 116 W/m² | - |
| 1777296023 | 15.56° C | 94% | 1002.8 hPa | 0 mm | - | 122 W/m² | - |
| 1777295720 | 15.56° C | 94% | 1003 hPa | 0 mm | - | 105 W/m² | - |
| 1777295418 | 15° C | 94% | 1003 hPa | 0 mm | - | 89 W/m² | - |
| 1777295115 | 15° C | 94% | 1003 hPa | 0 mm | - | 60 W/m² | - |
| 1777294812 | 15° C | 94% | 1002.5 hPa | 0 mm | - | 71 W/m² | - |
| 1777294507 | 15° C | 94% | 1002.7 hPa | 0 mm | - | 86 W/m² | - |
* Rain latest hour (hover to see other rain measurements)
** Current wind speed in m/s (hover to see current wind gust speed)